| time (UTC) | temp F | wind direction | speed MPH | gust MPH | rain 1hr in | rain 24hr in | rain mn in | humidity % | barometer mb |
| 20260902000004 | 61 | 273 | 2.0 | 7.0 | 0.00 | 0.02 | 0.00 | 88 | 1010.4 |
| 20260901233004 | 62 | 264 | 1.0 | 6.0 | 0.00 | 0.02 | 0.00 | 87 | 1010.4 |
| 20260901230005 | 62 | 229 | 2.0 | 5.0 | 0.00 | 0.02 | 0.00 | 87 | 1010.7 |
| 20260901224504 | 62 | 261 | 2.0 | 6.0 | 0.00 | 0.02 | 0.00 | 86 | 1010.3 |
| 20260901223006 | 62 | 276 | 3.0 | 7.0 | 0.00 | 0.02 | 0.00 | 85 | 1010.3 |
| 20260901221504 | 63 | 299 | 2.0 | 6.0 | 0.00 | 0.02 | 0.00 | 84 | 1010.2 |
| 20260901213005 | 64 | 272 | 3.0 | 7.0 | 0.00 | 0.02 | 0.02 | 83 | 1009.8 |
| 20260901204504 | 65 | 285 | 5.0 | 9.0 | 0.00 | 0.02 | 0.02 | 82 | 1009.7 |
| 20260901200004 | 65 | 265 | 3.0 | 9.0 | 0.00 | 0.02 | 0.02 | 83 | 1009.6 |
| 20260901194504 | 65 | 277 | 4.0 | 10.0 | 0.00 | 0.02 | 0.02 | 83 | 1009.4 |
| 20260901193005 | 65 | 277 | 2.0 | 8.0 | 0.00 | 0.02 | 0.02 | 83 | 1009.4 |
| 20260901190004 | 66 | 280 | 2.0 | 6.0 | 0.00 | 0.02 | 0.02 | 82 | 1009.0 |
| 20260901183005 | 67 | 275 | 2.0 | 7.0 | 0.00 | 0.02 | 0.02 | 79 | 1008.7 |
| 20260901181504 | 67 | 283 | 5.0 | 7.0 | 0.00 | 0.02 | 0.02 | 77 | 1008.7 |
| 20260901173005 | 67 | 222 | 1.0 | 3.0 | 0.00 | 0.02 | 0.02 | 86 | 1008.4 |
| 20260901163005 | 68 | 262 | 0.0 | 3.0 | 0.00 | 0.02 | 0.02 | 82 | 1008.0 |
| 20260901153005 | 71 | 217 | 2.0 | 8.0 | 0.01 | 0.02 | 0.02 | 77 | 1007.7 |
| 20260901150005 | 70 | 197 | 2.0 | 6.0 | 0.00 | 0.02 | 0.02 | 80 | 1007.8 |
| 20260901144505 | 69 | 216 | 2.0 | 6.0 | 0.00 | 0.02 | 0.02 | 80 | 1007.8 |
| 20260901133005 | 66 | 282 | 3.0 | 9.0 | 0.01 | 0.02 | 0.02 | 83 | 1007.8 |
| 20260901131504 | 69 | 212 | 4.0 | 12.0 | 0.00 | 0.01 | 0.01 | 77 | 1007.8 |
| 20260901124505 | 69 | 191 | 4.0 | 10.0 | 0.00 | 0.01 | 0.01 | 74 | 1007.8 |
| 20260901121504 | 70 | 218 | 3.0 | 8.0 | 0.00 | 0.01 | 0.01 | 72 | 1007.8 |
| 20260901114504 | 69 | 225 | 2.0 | 7.0 | 0.00 | 0.01 | 0.01 | 75 | 1007.9 |
| 20260901110005 | 67 | 197 | 3.0 | 6.0 | 0.00 | 0.01 | 0.01 | 78 | 1008.1 |
| 20260901104504 | 66 | 238 | 2.0 | 6.0 | 0.00 | 0.01 | 0.01 | 79 | 1008.1 |
| 20260901101504 | 65 | 258 | 2.0 | 8.0 | 0.00 | 0.01 | 0.01 | 81 | 1008.1 |
| 20260901094504 | 65 | 241 | 4.0 | 8.0 | 0.00 | 0.01 | 0.01 | 81 | 1008.0 |
| 20260901093006 | 65 | 263 | 1.0 | 7.0 | 0.00 | 0.01 | 0.01 | 81 | 1008.0 |
| 20260901083005 | 64 | 251 | 3.0 | 8.0 | 0.00 | 0.01 | 0.01 | 83 | 1007.4 |
| 20260901081504 | 64 | 239 | 3.0 | 7.0 | 0.00 | 0.01 | 0.01 | 84 | 1007.4 |
| 20260901080005 | 64 | 254 | 3.0 | 7.0 | 0.00 | 0.01 | 0.01 | 86 | 1007.4 |
| 20260901071504 | 63 | 256 | 2.0 | 5.0 | 0.00 | 0.01 | 0.01 | 89 | 1006.7 |
| 20260901070005 | 62 | 283 | 2.0 | 3.0 | 0.00 | 0.01 | 0.01 | 90 | 1006.7 |
| 20260901061504 | 61 | 285 | 1.0 | 3.0 | 0.00 | 0.01 | 0.01 | 91 | 1006.6 |
| 20260901054504 | 61 | 276 | 2.0 | 3.0 | 0.00 | 0.01 | 0.01 | 91 | 1006.6 |
| 20260901051504 | 61 | 250 | 1.0 | 3.0 | 0.00 | 0.01 | 0.01 | 92 | 1006.5 |
| 20260901041505 | 61 | 201 | 1.0 | 5.0 | 0.00 | 0.01 | 0.01 | 92 | 1006.5 |
| 20260901040004 | 61 | 210 | 2.0 | 6.0 | 0.00 | 0.01 | 0.01 | 92 | 1006.6 |
| 20260901033005 | 61 | 241 | 3.0 | 8.0 | 0.00 | 0.01 | 0.01 | 91 | 1006.6 |
| 20260901031503 | 61 | 226 | 2.0 | 6.0 | 0.00 | 0.01 | 0.01 | 91 | 1006.4 |
| 20260901024504 | 62 | 218 | 2.0 | 6.0 | 0.00 | 0.01 | 0.01 | 91 | 1006.3 |
| 20260901014504 | 62 | 207 | 2.0 | 7.0 | 0.01 | 0.01 | 0.01 | 91 | 1006.3 |
| 20260901011503 | 62 | 204 | 2.0 | 3.0 | 0.00 | 0.00 | 0.00 | 91 | 1006.3 |
| 20260901001503 | 63 | 192 | 1.0 | 6.0 | 0.00 | 0.00 | 0.00 | 91 | 1006.1 |